Flag for India Weather past 2 weeks in Jodhpur, Rajasthan, India

Now
81 °F

Haze.


Feels Like: 83 °F
Forecast: 77 / 92 °F
Wind: 6 mph from Northwest

Location: Jaipur / Sanganer

Current Time: Sep 23, 2014 at 12:43:42 AM

Latest Report: Sep 22, 2014 at 11:00 PM


Visibility: 2 mi

Pressure: 29.83 "Hg

Humidity: 62%

Dew point: 66 °F

Location of JodhpurLocation

Historic Weather in Jodhpur — Graph

°F

Jodhpur temperature yesterday

Maximum temperature yesterday: 93 °F (at 2:00 PM)
Minimum temperature yesterday: 75 °F (at 4:00 AM)
Average temperature yesterday: 84 °F

Past Weeks' High & Low Weather Summary

 TemperatureHumidityPressure
High93 °F (Sep 10, 1:00 PM)100% (Sep 11, 8:00 PM)29.86 "Hg (Sep 11, 8:00 PM)
Low72 °F (Sep 19, 3:00 AM)30% (Sep 22, 3:00 PM)29.65 "Hg (Sep 8, 6:00 PM)
Average84 °F70%29.74 "Hg
* Reported Sep 7 11:00 PM — Sep 22 11:00 PM, Jodhpur, Weather by CustomWeather, © 2014

Note: Actual official high and low records may vary slightly from our data, if they occured in-between our weather recording intervals... More about our weather records

Advertising

Jodhpur weather history for previous 24 hours

 ConditionsComfort  
Time TempWeatherWind HumidityBarometerVisibility
11:00 PM
Sep 22
81 °FHaze.6 mph62%29.83 "Hg2 mi
10:00 PM82 °FHaze.7 mph58%29.83 "Hg2 mi
9:00 PM82 °FHaze.6 mph55%29.83 "Hg2 mi
8:00 PM84 °FHaze.7 mph51%29.80 "Hg2 mi
7:00 PM86 °FHaze.9 mph46%29.77 "Hg2 mi
6:00 PM90 °FHaze.7 mph36%29.77 "Hg2 mi
5:00 PM93 °FHaze.8 mph34%29.74 "Hg2 mi
4:00 PM93 °FHaze.9 mph32%29.77 "Hg2 mi
3:00 PM93 °FHaze.9 mph30%29.77 "Hg2 mi
2:00 PM93 °FHaze.12 mph36%29.77 "Hg2 mi
1:00 PM91 °FHaze.9 mph46%29.83 "Hg2 mi
12:00 PM90 °FHaze.9 mph49%29.86 "Hg2 mi
11:00 AM88 °FHaze.8 mph55%29.86 "Hg2 mi
10:00 AM84 °FHaze.9 mph62%29.86 "Hg2 mi
9:00 AM81 °FHaze.12 mph66%29.83 "Hg2 mi
8:00 AM79 °FHaze.8 mph70%29.83 "Hg2 mi
7:00 AM77 °FHaze.7 mph74%29.80 "Hg2 mi
6:00 AM75 °FHaze.5 mph78%29.77 "Hg2 mi
5:00 AM77 °FHaze.5 mph74%29.77 "Hg2 mi
4:00 AM75 °FHaze.5 mph78%29.74 "Hg2 mi
3:00 AM77 °FHaze.7 mph74%29.77 "Hg2 mi
2:00 AM77 °FHaze.6 mph74%29.77 "Hg2 mi
12:00 AM81 °FHaze.7 mph62%29.80 "Hg2 mi
Weather by CustomWeather, © 2014

See weather overviewHow to use our weather pages